Landsat 7 - Orbit

View from above orbital plane
View from above orbital plane
View from above satellite
View from above satellite

Ground track
Ground track

The orbit data is extracted from the following two-line orbital elements,

1 25682U 99020A   13140.29709590  .00000475  00000-0  11550-3 0  1525
2 25682 098.1935 210.1448 0001122 116.7619 243.3699 14.57117649749772
Epoch (UTC): 20 May 2013 07:07:49
Eccentricity: 0.0001122
inclination: 98.1935°
perigee height: 702 km
apogee height: 703 km
right ascension of ascending node: 210.1448°
argument of perigee: 116.7619°
revolutions per day: 14.57117649
mean anomaly at epoch: 243.3699°
orbit number at epoch: 74977

The dashed part of the orbit path shows where the satellite is in the earth's shadow,  

Developed and maintained by Chris Peat, Heavens-Above GmbH. Please read the updated FAQ before sending e-mail. Imprint. DLR